Regional Weather Roundup
Issued by NWS

Home | Current Version | Previous Version | Text Only | Print | Product List | Glossary Off
Versions: 1 2 3 4 5 6 7 8 9 10 11 12 13 14 15 16 17 18 19 20 21 22 23 24 25 26 27 28 29 30 31 32 33 34 35 36 37 38 39 40 41 42 43 44 45 46 47 48 49 50

000
ASUS43 KLMK 290810
RWRKY
KENTUCKY REGIONAL WEATHER ROUNDUP
NATIONAL WEATHER SERVICE LOUISVILLE KY
400 AM EDT TUE JUL 29 2014

NOTE "FAIR" INDICATES FEW OR NO CLOUDS BELOW 12,000 FEET
WITH NO SIGNIFICANT WEATHER AND/OR OBSTRUCTIONS TO VISIBILITY.

KYZ001>023-026-027-061>063-070>075-290900-
WESTERN AND SOUTH CENTRAL KENTUCKY

CITY           SKY/WX    TMP DP  RH WIND       PRES   REMARKS
PADUCAH        CLEAR     60  55  83 CALM      30.08S
HENDERSON      CLEAR     54  50  87 CALM      30.07S
OWENSBORO      CLEAR     56  51  83 W5        30.07S
HOPKINSVILLE   CLEAR     62  55  78 N2        30.06S
BOWLING GREEN  CLEAR     62  51  67 VRB5      30.05S
GLASGOW        CLEAR     58  53  83 N3        30.04S
$$

KYZ024-025-028>034-038-045-046-053-290900-
NORTH CENTRAL KENTUCKY

CITY           SKY/WX    TMP DP  RH WIND       PRES   REMARKS
LOUISVILLE/SDF CLEAR     59  48  67 N12       30.03F
LOUISVILLE/LOU CLEAR     58  48  69 N6        30.04S
FORT KNOX      CLEAR     55  49  81 NW3       30.02F
$$

KYZ035>037-039>044-047>052-055>060-089>105-290900-
NORTHEAST KENTUCKY

CITY           SKY/WX    TMP DP  RH WIND       PRES   REMARKS
LEXINGTON      CLEAR     55  51  86 NW5       30.02S
COVINGTON      CLEAR     52  48  86 W3        30.01F
FRANKFORT      CLEAR     53  51  93 NW5       30.01F
$$

KYZ054-064>069-076>088-106>120-290900-
SOUTHEAST KENTUCKY

CITY           SKY/WX    TMP DP  RH WIND       PRES   REMARKS
JACKSON        PTCLDY    59  55  87 NW6       30.00F
LONDON         PTCLDY    61  55  81 CALM      30.01F
SOMERSET       CLOUDY    61  59  94 CALM      30.03S
MIDDLESBORO    CLOUDY    58  58 100 CALM      30.01S FOG
MONTICELLO     PTSUNNY   63  59  87 CALM      30.03F
$$




USA.gov is the U.S. government's official web portal to all federal, state and local government web resources and services.